Aeroporto :
LOGIN :

Iscrizione | Disclaimer

   EN    FR    IT 

 










Sommario :    VFR   VFR Marginale   IFR   IFR Intensivo   IFR Molto Intensivo
Visibilità : 
Base nubi : 
>= 8 km
>= 3000ft
5 / 8 km
1000 / 3000 ft
1500m / 5 km
500 / 1000 ft
800 / 1500m
200 / 500 ft
< 800m
< 200 ft
Simboli :   Temporali  Nebbia  Neve Forte  Precipitazioni Forti  Vento > 20 kt
SIGMETs :   Varie  Temporali  Ghiacco  Turbolenza  Onda orograficha  Ceneri Vulcaniche







- Altitudine del aeroporto : 102 ft
- Codice IATA : CNG
- Carte del aeroporto


LFBG - Cognac

ULTIMO METAR :
  • 221730Z AUTO 24004KT 9999 FEW041 SCT047 BKN056 07/04 Q1007

METARs OBSOLETI :
  • 221700Z AUTO 25003KT CAVOK 07/03 Q1007
  • 221630Z AUTO 27005KT 9999 FEW038 SCT130 BKN150 07/03 Q1007 NOSIG
  • 221600Z AUTO 28009KT 9999 BKN034 BKN042 OVC150 08/03 Q1007 NOSIG
  • 221530Z AUTO 30008KT 9999 FEW032 SCT039 BKN150 09/03 Q1007 NOSIG
  • 221500Z AUTO 30009KT CAVOK 09/03 Q1007 NOSIG

TAF TAF LFBG
Valido dal 22 a 15 ore il 23 a 15 ore UTC


221400Z 2215/2315 31010KT 9999 NSW SCT020
TEMPO 2220/2301 3000 -SHRA BKN015 SCT020TCU
TEMPO 2304/2308 33015G25KT 3000 -SHRA BKN015 SCT020TCU
Nessun NOTAM noto per questo aeroporto.



MetMap, La meteo Aeronautica in un colpo d'occhio ! - Copyright ORBIFLY Dicembre 2007 - Disclaimer

ORBIFLY MET'MAP TEAM :

Programmazione e sviluppo : Alexandra Zaïnal
Concezione e sviluppo : Baudouin d'Aumeries
Co-Programmazione e sviluppo : Marc-Olivier Méhu
Supporto tecnico e logistico : Manuel Goepfert
Aiuto per la traduzione : Arnaldo La Scala

Contatto : metmap@orbifly.com




FONTI E CREDITI :

   NOAA